VA5EVR-13 Weather Reports


time (UTC)temp
F
wind
direction
speed
knots
gust
knots
rain 1hr
in
rain 24hr
in
rain mn
in
humidity
%
barometer
mb
20260506082012 14 0 0.0 0.0 0.00 0.00 0.00 73 88.8
20260506081011 15 338 0.0 0.0 0.00 0.00 0.00 72 88.8
20260506073011 16 292 0.0 0.0 0.00 0.00 0.00 72 88.8
20260506072012 16 270 0.0 0.0 0.00 0.00 0.00 69 88.8
20260506071011 16 45 0.0 0.0 0.00 0.00 0.00 67 88.8
20260506062012 18 338 0.0 0.0 0.00 0.00 0.00 59 88.8
20260506061013 18 338 2.6 2.6 0.00 0.00 0.00 59 88.8
20260506051012 21 338 2.6 2.6 0.00 0.00 0.00 54 88.8
20260506045012 24 0 0.0 0.0 0.00 0.00 0.00 53 88.8
20260506043013 27 315 3.5 3.5 0.00 0.00 0.00 50 88.8
20260506042012 28 338 3.5 3.5 0.00 0.00 0.00 50 88.8
20260506041012 28 338 3.5 3.5 0.00 0.00 0.00 50 88.8
20260506040012 28 338 3.5 3.5 0.00 0.00 0.00 50 88.8
20260506035012 28 338 3.5 3.5 0.00 0.00 0.00 50 88.8
20260506034011 28 338 3.5 3.5 0.00 0.00 0.00 49 88.8
20260506033011 29 338 3.5 3.5 0.00 0.00 0.00 48 88.8
20260506032011 30 338 3.5 3.5 0.00 0.00 0.00 47 88.8
20260506031012 32 22 4.3 4.3 0.00 0.00 0.00 45 88.8
20260506030012 33 22 4.3 4.3 0.00 0.00 0.00 43 88.8
20260506025012 35 22 5.2 5.2 0.00 0.00 0.00 42 88.8
20260506024012 36 22 6.1 6.1 0.00 0.00 0.00 41 88.8
20260506023013 36 22 7.0 7.0 0.00 0.00 0.00 40 88.8
20260506022011 38 22 7.8 7.8 0.00 0.00 0.00 39 88.8
20260506021012 39 22 7.8 7.8 0.00 0.00 0.00 37 88.8
20260506020012 40 22 7.8 7.8 0.00 0.00 0.00 36 88.8
20260506015012 41 22 7.8 7.8 0.00 0.00 0.00 36 88.8
20260506014012 42 22 10.4 10.4 0.00 0.00 0.00 35 88.8
20260506012011 44 22 12.2 12.2 0.00 0.00 0.00 36 88.8
20260506011011 44 0 13.9 13.9 0.00 0.00 0.00 35 88.8
20260506010012 45 22 14.8 14.8 0.00 0.00 0.00 36 88.8
20260506005011 46 22 12.2 12.2 0.00 0.00 0.00 34 88.8
20260506004011 46 338 14.8 14.8 0.00 0.00 0.00 33 88.8
20260506003012 46 22 19.1 19.1 0.00 0.00 0.00 33 88.8
20260506002011 46 22 14.8 14.8 0.00 0.00 0.00 32 88.8
20260506001012 45 22 13.0 13.0 0.00 0.00 0.00 32 88.8
20260506000012 44 0 10.4 10.4 0.00 0.00 0.00 32 88.8
20260505235012 44 22 10.4 10.4 0.00 0.00 0.00 32 88.8
20260505234011 44 22 12.2 12.2 0.00 0.00 0.00 32 88.8
20260505233012 44 22 13.9 13.9 0.00 0.00 0.00 31 88.8
20260505232012 44 22 12.2 12.2 0.00 0.00 0.00 30 88.8
20260505231011 44 22 16.5 16.5 0.00 0.00 0.00 32 88.8
20260505230012 44 22 14.8 14.8 0.00 0.00 0.00 33 88.8
20260505225012 44 22 18.2 18.2 0.00 0.00 0.00 33 88.8
20260505224012 44 22 16.5 16.5 0.00 0.00 0.00 34 88.8
20260505223012 44 22 19.1 19.1 0.00 0.00 0.00 33 88.8
20260505222012 44 338 13.9 13.9 0.00 0.00 0.00 33 88.8
20260505221011 44 22 20.9 20.9 0.00 0.00 0.00 33 88.8
20260505220012 44 45 17.4 17.4 0.00 0.00 0.00 33 88.8
20260505215012 44 338 18.2 18.2 0.00 0.00 0.00 33 88.8
20260505214011 44 22 25.2 25.2 0.00 0.00 0.00 33 88.8
20260505213012 44 0 14.8 14.8 0.00 0.00 0.00 34 88.8
20260505212012 44 0 13.9 13.9 0.00 0.00 0.00 34 88.8
20260505211011 44 22 15.6 15.6 0.00 0.00 0.00 34 88.8
20260505210011 44 315 9.6 9.6 0.00 0.00 0.00 33 88.8
20260505205012 44 338 12.2 12.2 0.00 0.00 0.00 34 88.8
20260505204011 44 292 12.2 12.2 0.00 0.00 0.00 34 88.8
20260505203011 43 0 16.5 16.5 0.00 0.00 0.00 32 88.8
20260505202012 43 22 11.3 11.3 0.00 0.00 0.00 35 88.8
20260505201012 43 292 9.6 9.6 0.00 0.00 0.00 35 88.8
20260505200012 43 45 10.4 10.4 0.00 0.00 0.00 37 88.8
20260505195012 43 22 15.6 15.6 0.00 0.00 0.00 37 88.8
20260505194011 42 0 13.9 13.9 0.00 0.00 0.00 38 88.8
20260505193011 42 315 10.4 10.4 0.00 0.00 0.00 36 88.8
20260505192012 42 0 14.8 14.8 0.00 0.00 0.00 36 88.8
20260505191012 42 22 19.1 19.1 0.00 0.00 0.00 34 88.8
20260505190012 42 0 17.4 17.4 0.00 0.00 0.00 36 88.8
20260505185012 42 315 12.2 12.2 0.00 0.00 0.00 36 88.8
20260505184012 41 292 14.8 14.8 0.00 0.00 0.00 37 88.8
20260505183012 41 0 9.6 9.6 0.00 0.00 0.00 36 88.8
20260505182012 40 338 17.4 17.4 0.00 0.00 0.00 39 88.8
20260505181012 40 22 16.5 16.5 0.00 0.00 0.00 40 88.8
20260505180011 40 338 16.5 16.5 0.00 0.00 0.00 42 88.8
20260505175011 40 22 20.0 20.0 0.00 0.00 0.00 40 88.8
20260505174012 40 338 16.5 16.5 0.00 0.00 0.00 43 88.8
20260505173011 39 292 18.2 18.2 0.00 0.00 0.00 47 88.8
20260505172012 39 338 13.0 13.0 0.00 0.00 0.00 51 88.8
20260505171012 38 0 13.0 13.0 0.00 0.00 0.00 50 88.8
20260505170012 38 0 16.5 16.5 0.00 0.00 0.00 51 88.8
20260505165012 38 0 12.2 12.2 0.00 0.00 0.00 50 88.8
20260505164012 37 315 15.6 15.6 0.00 0.00 0.00 51 88.8
20260505163012 36 338 10.4 10.4 0.00 0.00 0.00 52 88.8
20260505162011 36 0 12.2 12.2 0.00 0.00 0.00 53 88.8
20260505161012 36 338 16.5 16.5 0.00 0.00 0.00 52 88.8
20260505153011 36 338 16.5 16.5 0.00 0.00 0.00 56 88.8
20260505152011 36 315 13.9 13.9 0.00 0.00 0.00 57 88.8
20260505151012 37 22 13.9 13.9 0.00 0.00 0.00 60 88.8
20260505125012 24 0 8.7 8.7 0.00 0.00 0.00 93 88.8
20260505124012 24 338 7.8 7.8 0.00 0.00 0.00 94 88.8
20260505123011 24 315 6.1 6.1 0.00 0.00 0.00 96 88.8
20260505122012 24 292 7.8 7.8 0.00 0.00 0.00 96 88.8
20260505121012 24 338 7.0 7.0 0.00 0.00 0.00 97 88.8
20260505120012 24 315 7.0 7.0 0.00 0.00 0.00 98 88.8
20260505115012 24 0 6.1 6.1 0.00 0.00 0.00 99 88.8
20260505114011 24 315 6.1 6.1 0.00 0.00 0.00 99 88.8
20260505113011 24 338 7.0 7.0 0.00 0.00 0.00 99 88.8
20260505112012 24 315 7.0 7.0 0.00 0.00 0.00 99 88.8
20260505111012 24 338 6.1 6.1 0.00 0.00 0.00 99 88.8
20260505102012 24 338 7.0 7.0 0.00 0.00 0.00 96 88.8
20260505101012 24 292 6.1 6.1 0.00 0.00 0.00 96 88.8
20260505100011 24 292 5.2 5.2 0.00 0.00 0.00 95 88.8
20260505095012 24 338 6.1 6.1 0.00 0.00 0.00 94 88.8
20260505094011 24 292 5.2 5.2 0.00 0.00 0.00 93 88.8
20260505093012 24 292 6.1 6.1 0.00 0.00 0.00 92 88.8
20260505092013 24 338 7.0 7.0 0.00 0.00 0.00 91 88.8
20260505091012 24 338 6.1 6.1 0.00 0.00 0.00 89 88.8
20260505085012 24 22 6.1 6.1 0.00 0.00 0.00 88 88.8
20260505084012 24 315 5.2 5.2 0.00 0.00 0.00 88 88.8
20260505083011 24 292 6.1 6.1 0.00 0.00 0.00 87 88.8